Location: Shenandoah County Park
(38.9356°N, 78.4524°W)
Time: 06:04:55
(UTC-04:00)

Explorer 11/Cluster Stage 4 - Pass Details

Date: 29 February 2024
Orbit: 465 x 1220 km, 28.8° (Epoch: 12 April)

Event Time Altitude Azimuth Distance (km) Brightness Sun altitude
Rises 00:05:35 0° 240° (WSW) 4,014 - -58.5°
Reaches altitude 10° 00:08:37 10° 232° (SW) 3,110 - -58.6°
Maximum altitude 00:15:40 36° 170° (S) 1,831 - -58.7°
Drops below altitude 10° 00:22:42 10° 108° (ESE) 3,105 - -58.8°
Sets 00:25:43 0° 100° (E) 4,007 - -58.8°
